Weather History for Raton, NM

Change the Weather History Date:

Sunday, January 20, 2013

  Actual Average (KTAD) Record (KTAD)
Temperature  
Mean Temperature 42 °F 32 °F  
Max Temperature 64 °F 47 °F 73 °F (1971)
Min Temperature 19 °F 18 °F -9 °F (1960)
Degree Days  
Heating Degree Days 24 33  
Month to date heating degree days 660  
Since 1 July heating degree days 2928  
Cooling Degree Days 0 0  
Month to date cooling degree days 0  
Year to date cooling degree days 0  
Moisture  
Dew Point 14 °F    
Average Humidity 41    
Maximum Humidity 66    
Minimum Humidity 13    
Precipitation  
Precipitation 0.01 in 0.01 in 0.37 in (1959)
Month to date precipitation 0.25  
Year to date precipitation 0.25  
Sea Level Pressure  
Sea Level Pressure 30.17 in    
Wind  
Wind Speed 9 mph (NNE)    
Max Wind Speed 24 mph    
Max Gust Speed 30 mph    
Visibility 10 miles    
Events      
T = Trace of Precipitation, MM = Missing Value Source: NWS Daily Summary

Daily Weather History Graph

Daily Weather History Graph

Search for Another Location

Airport:

Trip Planner

Search our weather history database for the weather conditions in past years. The results will help you decide how hot, cold, wet, or windy it might be!

Date:

Astronomy

Jan. 20, 2013 Rise Set
Actual Time 7:07 AM MST 5:11 PM MST
Civil Twilight 6:39 AM MST 5:39 PM MST
Nautical Twilight 6:08 AM MST 6:10 PM MST
Astronomical Twilight 5:37 AM MST 6:41 PM MST
Moon 12:13 PM MST 1:43 AM MST
Length of Visible Light 10h 59m
Length of Day
10h 03m
Waxing Gibbous, 67% of the Moon is Illuminated
Jan 20
Waxing Gibbous
Jan 26
Full
Feb 3
Last Quarter
Feb 10
New
Feb 17
First Quarter

Hourly Weather History & Observations

Time (MST) Temp. Windchill Dew Point Humidity Pressure Visibility Wind Dir Wind Speed Gust Speed Precip Events Conditions
12:53 AM 25.0 °F 15.5 °F 15.1 °F 66% 30.23 in 10.0 mi North 9.2 mph - N/A   Clear
1:53 AM 24.1 °F 16.0 °F 14.0 °F 65% 30.21 in 10.0 mi North 6.9 mph - N/A   Clear
2:53 AM 32.0 °F 26.4 °F 12.9 °F 45% 30.16 in 10.0 mi North 5.8 mph - N/A   Clear
3:53 AM 21.9 °F 15.7 °F 10.9 °F 63% 30.18 in 10.0 mi NNE 4.6 mph - N/A   Clear
4:53 AM 21.0 °F 13.4 °F 10.9 °F 65% 30.19 in 10.0 mi NE 5.8 mph - N/A   Clear
5:53 AM 21.9 °F 13.4 °F 10.9 °F 63% 30.20 in 10.0 mi North 6.9 mph - N/A   Clear
6:53 AM 19.9 °F 10.1 °F 9.0 °F 62% 30.24 in 10.0 mi NE 8.1 mph - 0.01 in   Clear
7:53 AM 28.9 °F 22.8 °F 10.0 °F 45% 30.17 in 10.0 mi NNE 5.8 mph - N/A   Clear
8:53 AM 35.1 °F 27.9 °F 15.1 °F 44% 30.17 in 10.0 mi ENE 9.2 mph - N/A   Clear
9:53 AM 42.1 °F 35.7 °F 19.0 °F 40% 30.16 in 10.0 mi NE 11.5 mph - N/A   Clear
10:53 AM 59.0 °F - 17.1 °F 20% 30.11 in 10.0 mi East 8.1 mph - N/A   Clear
11:53 AM 61.0 °F - 12.9 °F 15% 30.09 in 10.0 mi ENE 24.2 mph 29.9 mph N/A   Clear
12:53 PM 64.9 °F - 12.9 °F 13% 30.06 in 10.0 mi ENE 20.7 mph - N/A   Clear
1:53 PM 62.1 °F - 12.9 °F 15% 30.06 in 10.0 mi NE 18.4 mph - N/A   Clear
2:53 PM 59.0 °F - 10.9 °F 15% 30.04 in 10.0 mi NE 16.1 mph - N/A   Clear
3:53 PM 57.0 °F - 15.1 °F 19% 30.10 in 10.0 mi NE 15.0 mph - N/A   Clear
4:53 PM 54.0 °F - 17.1 °F 23% 30.14 in 10.0 mi ENE 11.5 mph - N/A   Clear
5:53 PM 44.1 °F 38.1 °F 18.0 °F 35% 30.21 in 10.0 mi NNE 11.5 mph - N/A   Clear
6:53 PM 37.0 °F 31.6 °F 16.0 °F 42% 30.26 in 10.0 mi North 6.9 mph - N/A   Clear
7:53 PM 33.1 °F 27.7 °F 16.0 °F 50% 30.25 in 10.0 mi North 5.8 mph - N/A   Clear
8:53 PM 35.1 °F 29.3 °F 15.1 °F 44% 30.23 in 10.0 mi North 6.9 mph - N/A   Clear
9:53 PM 30.9 °F 26.2 °F 12.9 °F 47% 30.22 in 10.0 mi NW 4.6 mph - N/A   Clear
10:53 PM 28.0 °F - 14.0 °F 56% 30.19 in 10.0 mi Calm Calm - N/A   Clear
11:53 PM 39.0 °F 34.8 °F 12.9 °F 34% 30.14 in 10.0 mi SW 5.8 mph - N/A   Clear